Year,Month,Day,Hour,Minute,Value (Times are PST for temperature in C)
2012,06,30,00,00,16.70
2012,06,30,00,01,16.60
2012,06,30,00,02,16.60
2012,06,30,00,03,16.60
2012,06,30,00,04,16.60
2012,06,30,00,05,16.50
2012,06,30,00,06,16.40
2012,06,30,00,07,16.40
2012,06,30,00,08,16.50
2012,06,30,00,09,16.40
2012,06,30,00,10,16.40
2012,06,30,00,11,16.40
2012,06,30,00,12,16.40
2012,06,30,00,13,16.40
2012,06,30,00,14,16.40
2012,06,30,00,15,16.40
2012,06,30,00,16,16.40
2012,06,30,00,17,16.40
2012,06,30,00,18,16.40
2012,06,30,00,19,16.40
2012,06,30,00,20,16.40
2012,06,30,00,21,16.40
2012,06,30,00,22,16.40
2012,06,30,00,23,16.40
2012,06,30,00,24,16.40
2012,06,30,00,25,16.40
2012,06,30,00,26,16.40
2012,06,30,00,27,16.40
2012,06,30,00,28,16.40
2012,06,30,00,29,16.40
2012,06,30,00,30,16.40
2012,06,30,00,31,16.40
2012,06,30,00,32,16.40
2012,06,30,00,33,16.40
2012,06,30,00,34,16.40
2012,06,30,00,35,16.40
2012,06,30,00,36,16.40
2012,06,30,00,37,16.40
2012,06,30,00,38,16.40
2012,06,30,00,39,16.40
2012,06,30,00,40,16.40
2012,06,30,00,41,16.40
2012,06,30,00,42,16.40
2012,06,30,00,43,16.40
2012,06,30,00,44,16.40
2012,06,30,00,45,16.40
2012,06,30,00,46,16.40
2012,06,30,00,47,16.40
2012,06,30,00,48,16.40
2012,06,30,00,49,16.40
2012,06,30,00,50,16.40
2012,06,30,00,51,16.40
2012,06,30,00,52,16.40
2012,06,30,00,53,16.40
2012,06,30,00,54,16.40
2012,06,30,00,55,16.40
2012,06,30,00,56,16.40
2012,06,30,00,57,16.40
2012,06,30,00,58,16.30
2012,06,30,00,59,16.30
2012,06,30,01,00,16.30
2012,06,30,01,01,16.30
2012,06,30,01,02,16.30
2012,06,30,01,03,16.30
2012,06,30,01,04,16.30
2012,06,30,01,05,16.30
2012,06,30,01,06,16.30
2012,06,30,01,07,16.30
2012,06,30,01,08,16.30
2012,06,30,01,09,16.30
2012,06,30,01,10,16.20
2012,06,30,01,11,16.20
2012,06,30,01,12,16.20
2012,06,30,01,13,16.20
2012,06,30,01,14,16.20
2012,06,30,01,15,16.20
2012,06,30,01,16,16.20
2012,06,30,01,17,16.20
2012,06,30,01,18,16.20
2012,06,30,01,19,16.20
2012,06,30,01,20,16.20
2012,06,30,01,21,16.20
2012,06,30,01,22,16.10
2012,06,30,01,23,16.10
2012,06,30,01,24,16.00
2012,06,30,01,25,15.90
2012,06,30,01,26,15.80
2012,06,30,01,27,15.70
2012,06,30,01,28,15.60
2012,06,30,01,29,15.50
2012,06,30,01,30,15.40
2012,06,30,01,31,15.30
2012,06,30,01,32,15.20
2012,06,30,01,33,15.10
2012,06,30,01,34,15.00
2012,06,30,01,35,14.90
2012,06,30,01,36,14.80
2012,06,30,01,37,14.70
2012,06,30,01,38,14.60
2012,06,30,01,39,14.50
2012,06,30,01,40,14.50
2012,06,30,01,41,14.40
2012,06,30,01,42,14.40
2012,06,30,01,43,14.30
2012,06,30,01,44,14.30
2012,06,30,01,45,14.20
2012,06,30,01,46,14.20
2012,06,30,01,47,14.20
2012,06,30,01,48,14.10
2012,06,30,01,49,14.10
2012,06,30,01,50,14.10
2012,06,30,01,51,14.00
2012,06,30,01,52,14.00
2012,06,30,01,53,14.00
2012,06,30,01,54,14.00
2012,06,30,01,55,14.00
2012,06,30,01,56,13.90
2012,06,30,01,57,13.90
2012,06,30,01,58,13.90
2012,06,30,01,59,13.90
2012,06,30,02,00,13.80
2012,06,30,02,01,13.80
2012,06,30,02,02,13.80
2012,06,30,02,03,13.80
2012,06,30,02,04,13.80
2012,06,30,02,05,13.80
2012,06,30,02,06,13.80
2012,06,30,02,07,13.80
2012,06,30,02,08,13.80
2012,06,30,02,09,13.80
2012,06,30,02,10,13.80
2012,06,30,02,11,13.90
2012,06,30,02,12,13.90
2012,06,30,02,13,13.90
2012,06,30,02,14,13.90
2012,06,30,02,15,13.90
2012,06,30,02,16,14.00
2012,06,30,02,17,14.00
2012,06,30,02,18,14.00
2012,06,30,02,19,14.10
2012,06,30,02,20,14.00
2012,06,30,02,21,14.00
2012,06,30,02,22,14.00
2012,06,30,02,23,14.00
2012,06,30,02,24,14.10
2012,06,30,02,25,14.10
2012,06,30,02,26,14.10
2012,06,30,02,27,14.10
2012,06,30,02,28,14.10
2012,06,30,02,29,14.10
2012,06,30,02,30,14.00
2012,06,30,02,31,14.00
2012,06,30,02,32,14.00
2012,06,30,02,33,14.00
2012,06,30,02,34,14.00
2012,06,30,02,35,14.00
2012,06,30,02,36,14.00
2012,06,30,02,37,14.00
2012,06,30,02,38,14.00
2012,06,30,02,39,14.00
2012,06,30,02,40,14.00
2012,06,30,02,41,14.00
2012,06,30,02,42,14.00
2012,06,30,02,43,14.00
2012,06,30,02,44,14.00
2012,06,30,02,45,14.00
2012,06,30,02,46,14.00
2012,06,30,02,47,13.90
2012,06,30,02,48,14.00
2012,06,30,02,49,14.00
2012,06,30,02,50,14.00
2012,06,30,02,51,14.00
2012,06,30,02,52,14.00
2012,06,30,02,53,14.00
2012,06,30,02,54,14.00
2012,06,30,02,55,14.00
2012,06,30,02,56,14.00
2012,06,30,02,57,14.00
2012,06,30,02,58,14.00
2012,06,30,02,59,14.00
2012,06,30,03,00,14.00
2012,06,30,03,01,14.00
2012,06,30,03,02,14.00
2012,06,30,03,03,14.00
2012,06,30,03,04,14.00
2012,06,30,03,05,14.00
2012,06,30,03,06,14.00
2012,06,30,03,07,14.00
2012,06,30,03,08,14.00
2012,06,30,03,09,14.10
2012,06,30,03,10,14.10
2012,06,30,03,11,14.10
2012,06,30,03,12,14.10
2012,06,30,03,13,14.10
2012,06,30,03,14,14.20
2012,06,30,03,15,14.10
2012,06,30,03,16,14.10
2012,06,30,03,17,14.20
2012,06,30,03,18,14.10
2012,06,30,03,19,14.10
2012,06,30,03,20,14.10
2012,06,30,03,21,14.10
2012,06,30,03,22,14.10
2012,06,30,03,23,14.10
2012,06,30,03,24,14.10
2012,06,30,03,25,14.10
2012,06,30,03,26,14.00
2012,06,30,03,27,14.00
2012,06,30,03,28,14.00
2012,06,30,03,29,14.00
2012,06,30,03,30,14.00
2012,06,30,03,31,14.00
2012,06,30,03,32,14.00
2012,06,30,03,33,14.00
2012,06,30,03,34,13.90
2012,06,30,03,35,13.90
2012,06,30,03,36,13.90
2012,06,30,03,37,13.90
2012,06,30,03,38,14.00
2012,06,30,03,39,14.00
2012,06,30,03,40,14.00
2012,06,30,03,41,14.10
2012,06,30,03,42,14.10
2012,06,30,03,43,14.10
2012,06,30,03,44,14.10
2012,06,30,03,45,14.10
2012,06,30,03,46,14.10
2012,06,30,03,47,14.10
2012,06,30,03,48,14.20
2012,06,30,03,49,14.20
2012,06,30,03,50,14.20
2012,06,30,03,51,14.20
2012,06,30,03,52,14.20
2012,06,30,03,53,14.20
2012,06,30,03,54,14.20
2012,06,30,03,55,14.20
2012,06,30,03,56,14.20
2012,06,30,03,57,14.20
2012,06,30,03,58,14.20
2012,06,30,03,59,14.20
2012,06,30,04,00,14.20
2012,06,30,04,01,14.20
2012,06,30,04,02,14.20
2012,06,30,04,03,14.20
2012,06,30,04,04,14.20
2012,06,30,04,05,14.20
2012,06,30,04,06,14.20
2012,06,30,04,07,14.20
2012,06,30,04,08,14.20
2012,06,30,04,09,14.20
2012,06,30,04,10,14.20
2012,06,30,04,11,14.20
2012,06,30,04,12,14.20
2012,06,30,04,13,14.20
2012,06,30,04,14,14.20
2012,06,30,04,15,14.20
2012,06,30,04,16,14.20
2012,06,30,04,17,14.20
2012,06,30,04,18,14.20
2012,06,30,04,19,14.20
2012,06,30,04,20,14.20
2012,06,30,04,21,14.20
2012,06,30,04,22,14.30
2012,06,30,04,23,14.30
2012,06,30,04,24,14.30
2012,06,30,04,25,14.30
2012,06,30,04,26,14.30
2012,06,30,04,27,14.30
2012,06,30,04,28,14.30
2012,06,30,04,29,14.30
2012,06,30,04,30,14.30
2012,06,30,04,31,14.30
2012,06,30,04,32,14.30
2012,06,30,04,33,14.30
2012,06,30,04,34,14.30
2012,06,30,04,35,14.30
2012,06,30,04,36,14.30
2012,06,30,04,37,14.30
2012,06,30,04,38,14.30
2012,06,30,04,39,14.30
2012,06,30,04,40,14.30
2012,06,30,04,41,14.40
2012,06,30,04,42,14.40
2012,06,30,04,43,14.40
2012,06,30,04,44,14.40
2012,06,30,04,45,14.40
2012,06,30,04,46,14.40
2012,06,30,04,47,14.40
2012,06,30,04,48,14.40
2012,06,30,04,49,14.40
2012,06,30,04,50,14.40
2012,06,30,04,51,14.40
2012,06,30,04,52,14.40
2012,06,30,04,53,14.40
2012,06,30,04,54,14.40
2012,06,30,04,55,14.40
2012,06,30,04,56,14.40
2012,06,30,04,57,14.40
2012,06,30,04,58,14.40
2012,06,30,04,59,14.40
2012,06,30,05,00,14.50
2012,06,30,05,01,14.50
2012,06,30,05,02,14.50
2012,06,30,05,03,14.50
2012,06,30,05,04,14.50
2012,06,30,05,05,14.50
2012,06,30,05,06,14.50
2012,06,30,05,07,14.50
2012,06,30,05,08,14.40
2012,06,30,05,09,14.40
2012,06,30,05,10,14.40
2012,06,30,05,11,14.40
2012,06,30,05,12,14.40
2012,06,30,05,13,14.40
2012,06,30,05,14,14.50
2012,06,30,05,15,14.50
2012,06,30,05,16,14.50
2012,06,30,05,17,14.50
2012,06,30,05,18,14.50
2012,06,30,05,19,14.60
2012,06,30,05,20,14.50
2012,06,30,05,21,14.50
2012,06,30,05,22,14.50
2012,06,30,05,23,14.50
2012,06,30,05,24,14.50
2012,06,30,05,25,14.50
2012,06,30,05,26,14.50
2012,06,30,05,27,14.40
2012,06,30,05,28,14.40
2012,06,30,05,29,14.40
2012,06,30,05,30,14.40
2012,06,30,05,31,14.40
2012,06,30,05,32,14.40
2012,06,30,05,33,14.40
2012,06,30,05,34,14.40
2012,06,30,05,35,14.40
2012,06,30,05,36,14.30
2012,06,30,05,37,14.30
2012,06,30,05,38,14.30
2012,06,30,05,39,14.30
2012,06,30,05,40,14.30
2012,06,30,05,41,14.30
2012,06,30,05,42,14.30
2012,06,30,05,43,14.30
2012,06,30,05,44,14.30
2012,06,30,05,45,14.30
2012,06,30,05,46,14.30
2012,06,30,05,47,14.30
2012,06,30,05,48,14.30
2012,06,30,05,49,14.30
2012,06,30,05,50,14.30
2012,06,30,05,51,14.30
2012,06,30,05,52,14.30
2012,06,30,05,53,14.30
2012,06,30,05,54,14.30
2012,06,30,05,55,14.40
2012,06,30,05,56,14.40
2012,06,30,05,57,14.30
2012,06,30,05,58,14.30
2012,06,30,05,59,14.30
2012,06,30,06,00,14.30
2012,06,30,06,01,14.30
2012,06,30,06,02,14.30
2012,06,30,06,03,14.30
2012,06,30,06,04,14.30
2012,06,30,06,05,14.20
2012,06,30,06,06,14.20
2012,06,30,06,07,14.20
2012,06,30,06,08,14.20
2012,06,30,06,09,14.20
2012,06,30,06,10,14.20
2012,06,30,06,11,14.20
2012,06,30,06,12,14.20
2012,06,30,06,13,14.20
2012,06,30,06,14,14.20
2012,06,30,06,15,14.20
2012,06,30,06,16,14.20
2012,06,30,06,17,14.20
2012,06,30,06,18,14.20
2012,06,30,06,19,14.20
2012,06,30,06,20,14.20
2012,06,30,06,21,14.10
2012,06,30,06,22,14.10
2012,06,30,06,23,14.10
2012,06,30,06,24,14.10
2012,06,30,06,25,14.10
2012,06,30,06,26,14.10
2012,06,30,06,27,14.10
2012,06,30,06,28,14.10
2012,06,30,06,29,14.20
2012,06,30,06,30,14.20
2012,06,30,06,31,14.10
2012,06,30,06,32,14.10
2012,06,30,06,33,14.10
2012,06,30,06,34,14.10
2012,06,30,06,35,14.20
2012,06,30,06,36,14.20
2012,06,30,06,37,14.20
2012,06,30,06,38,14.20
2012,06,30,06,39,14.20
2012,06,30,06,40,14.20
2012,06,30,06,41,14.20
2012,06,30,06,42,14.20
2012,06,30,06,43,14.20
2012,06,30,06,44,14.20
2012,06,30,06,45,14.20
2012,06,30,06,46,14.20
2012,06,30,06,47,14.20
2012,06,30,06,48,14.20
2012,06,30,06,49,14.20
2012,06,30,06,50,14.20
2012,06,30,06,51,14.20
2012,06,30,06,52,14.20
2012,06,30,06,53,14.20
2012,06,30,06,54,14.20
2012,06,30,06,55,14.20
2012,06,30,06,56,14.20
2012,06,30,06,57,14.20
2012,06,30,06,58,14.20
2012,06,30,06,59,14.20
2012,06,30,07,00,14.20
2012,06,30,07,01,14.20
2012,06,30,07,02,14.20
2012,06,30,07,03,14.20
2012,06,30,07,04,14.20
2012,06,30,07,05,14.20
2012,06,30,07,06,14.20
2012,06,30,07,07,14.20
2012,06,30,07,08,14.10
2012,06,30,07,09,14.10
2012,06,30,07,10,14.10
2012,06,30,07,11,14.00
2012,06,30,07,12,13.90
2012,06,30,07,13,13.90
2012,06,30,07,14,13.80
2012,06,30,07,15,13.80
2012,06,30,07,16,13.80
2012,06,30,07,17,13.80
2012,06,30,07,18,13.70
2012,06,30,07,19,13.70
2012,06,30,07,20,13.70
2012,06,30,07,21,13.70
2012,06,30,07,22,13.70
2012,06,30,07,23,13.70
2012,06,30,07,24,13.70
2012,06,30,07,25,13.70
2012,06,30,07,26,13.70
2012,06,30,07,27,13.70
2012,06,30,07,28,13.70
2012,06,30,07,29,13.70
2012,06,30,07,30,13.70
2012,06,30,07,31,13.70
2012,06,30,07,32,13.70
2012,06,30,07,33,13.70
2012,06,30,07,34,13.80
2012,06,30,07,35,13.80
2012,06,30,07,36,13.80
2012,06,30,07,37,13.80
2012,06,30,07,38,13.80
2012,06,30,07,39,13.80
2012,06,30,07,40,13.90
2012,06,30,07,41,13.90
2012,06,30,07,42,13.90
2012,06,30,07,43,13.90
2012,06,30,07,44,13.90
2012,06,30,07,45,13.90
2012,06,30,07,46,13.90
2012,06,30,07,47,13.90
2012,06,30,07,48,13.90
2012,06,30,07,49,13.90
2012,06,30,07,50,13.90
2012,06,30,07,51,13.90
2012,06,30,07,52,13.90
2012,06,30,07,53,14.00
2012,06,30,07,54,14.00
2012,06,30,07,55,14.10
2012,06,30,07,56,14.20
2012,06,30,07,57,14.20
2012,06,30,07,58,14.20
2012,06,30,07,59,14.20
2012,06,30,08,00,14.20
2012,06,30,08,01,14.20
2012,06,30,08,02,14.20
2012,06,30,08,03,14.20
2012,06,30,08,04,14.30
2012,06,30,08,05,14.30
2012,06,30,08,06,14.40
2012,06,30,08,07,14.40
2012,06,30,08,08,14.40
2012,06,30,08,09,14.50
2012,06,30,08,10,14.50
2012,06,30,08,11,14.60
2012,06,30,08,12,14.60
2012,06,30,08,13,14.70
2012,06,30,08,14,14.60
2012,06,30,08,15,14.60
2012,06,30,08,16,14.60
2012,06,30,08,17,14.70
2012,06,30,08,18,14.70
2012,06,30,08,19,14.70
2012,06,30,08,20,14.70
2012,06,30,08,21,14.70
2012,06,30,08,22,14.70
2012,06,30,08,23,14.80
2012,06,30,08,24,14.80
2012,06,30,08,25,14.80
2012,06,30,08,26,14.80
2012,06,30,08,27,14.80
2012,06,30,08,28,14.80
2012,06,30,08,29,14.80
2012,06,30,08,30,14.80
2012,06,30,08,31,14.80
2012,06,30,08,32,14.80
2012,06,30,08,33,14.80
2012,06,30,08,34,14.80
2012,06,30,08,35,14.90
2012,06,30,08,36,14.90
2012,06,30,08,37,14.90
2012,06,30,08,38,15.00
2012,06,30,08,39,15.00
2012,06,30,08,40,15.00
2012,06,30,08,41,15.00
2012,06,30,08,42,15.00
2012,06,30,08,43,15.00
2012,06,30,08,44,15.00
2012,06,30,08,45,15.10
2012,06,30,08,46,15.00
2012,06,30,08,47,15.00
2012,06,30,08,48,15.10
2012,06,30,08,49,15.10
2012,06,30,08,50,15.10
2012,06,30,08,51,15.20
2012,06,30,08,52,15.20
2012,06,30,08,53,15.20
2012,06,30,08,54,15.20
2012,06,30,08,55,15.20
2012,06,30,08,56,15.30
2012,06,30,08,57,15.30
2012,06,30,08,58,15.40
2012,06,30,08,59,15.40
2012,06,30,09,00,15.40
2012,06,30,09,01,15.40
2012,06,30,09,02,15.40
2012,06,30,09,03,15.50
2012,06,30,09,04,15.50
2012,06,30,09,05,15.50
2012,06,30,09,06,15.50
2012,06,30,09,07,15.50
2012,06,30,09,08,15.50
2012,06,30,09,09,15.50
2012,06,30,09,10,15.50
2012,06,30,09,11,15.40
2012,06,30,09,12,15.40
2012,06,30,09,13,15.40
2012,06,30,09,14,15.30
2012,06,30,09,15,15.30
2012,06,30,09,16,15.30
2012,06,30,09,17,15.40
2012,06,30,09,18,15.40
2012,06,30,09,19,15.30
2012,06,30,09,20,15.30
2012,06,30,09,21,15.30
2012,06,30,09,22,15.30
2012,06,30,09,23,15.30
2012,06,30,09,24,15.30
2012,06,30,09,25,15.30
2012,06,30,09,26,15.30
2012,06,30,09,27,15.30
2012,06,30,09,28,15.30
2012,06,30,09,29,15.30
2012,06,30,09,30,15.40
2012,06,30,09,31,15.40
2012,06,30,09,32,15.40
2012,06,30,09,33,15.30
2012,06,30,09,34,15.30
2012,06,30,09,35,15.30
2012,06,30,09,36,15.30
2012,06,30,09,37,15.30
2012,06,30,09,38,15.40
2012,06,30,09,39,15.40
2012,06,30,09,40,15.50
2012,06,30,09,41,15.50
2012,06,30,09,42,15.50
2012,06,30,09,43,15.50
2012,06,30,09,44,15.40
2012,06,30,09,45,15.40
2012,06,30,09,46,15.50
2012,06,30,09,47,15.60
2012,06,30,09,48,15.60
2012,06,30,09,49,15.70
2012,06,30,09,50,15.70
2012,06,30,09,51,15.70
2012,06,30,09,52,15.70
2012,06,30,09,53,15.60
2012,06,30,09,54,15.60
2012,06,30,09,55,15.60
2012,06,30,09,56,15.50
2012,06,30,09,57,15.50
2012,06,30,09,58,15.50
2012,06,30,09,59,15.50
2012,06,30,10,00,15.50
2012,06,30,10,01,15.50
2012,06,30,10,02,15.50
2012,06,30,10,03,15.50
2012,06,30,10,04,15.50
2012,06,30,10,05,15.60
2012,06,30,10,06,15.60
2012,06,30,10,07,15.50
2012,06,30,10,08,15.50
2012,06,30,10,09,15.60
2012,06,30,10,10,15.60
2012,06,30,10,11,15.50
2012,06,30,10,12,15.50
2012,06,30,10,13,15.50
2012,06,30,10,14,15.50
2012,06,30,10,15,15.50
2012,06,30,10,16,15.50
2012,06,30,10,17,15.50
2012,06,30,10,18,15.50
2012,06,30,10,19,15.60
2012,06,30,10,20,15.60
2012,06,30,10,21,15.70
2012,06,30,10,22,15.80
2012,06,30,10,23,15.80
2012,06,30,10,24,15.80
2012,06,30,10,25,15.80
2012,06,30,10,26,15.80
2012,06,30,10,27,15.80
2012,06,30,10,28,15.80
2012,06,30,10,29,15.90
2012,06,30,10,30,15.90
2012,06,30,10,31,16.10
2012,06,30,10,32,16.10
2012,06,30,10,33,16.10
2012,06,30,10,34,16.10
2012,06,30,10,35,16.10
2012,06,30,10,36,16.20
2012,06,30,10,37,16.20
2012,06,30,10,38,16.20
2012,06,30,10,39,16.20
2012,06,30,10,40,16.20
2012,06,30,10,41,16.10
2012,06,30,10,42,16.10
2012,06,30,10,43,16.10
2012,06,30,10,44,16.10
2012,06,30,10,45,16.10
2012,06,30,10,46,16.10
2012,06,30,10,47,16.10
2012,06,30,10,48,16.10
2012,06,30,10,49,16.10
2012,06,30,10,50,16.10
2012,06,30,10,51,16.10
2012,06,30,10,52,16.10
2012,06,30,10,53,16.10
2012,06,30,10,54,16.00
2012,06,30,10,55,15.90
2012,06,30,10,56,16.00
2012,06,30,10,57,16.10
2012,06,30,10,58,16.10
2012,06,30,10,59,16.10
2012,06,30,11,00,16.10
2012,06,30,11,01,16.10
2012,06,30,11,02,16.10
2012,06,30,11,03,16.00
2012,06,30,11,04,15.90
2012,06,30,11,05,15.80
2012,06,30,11,06,15.80
2012,06,30,11,07,15.80
2012,06,30,11,08,15.80
2012,06,30,11,09,15.80
2012,06,30,11,10,15.80
2012,06,30,11,11,15.80
2012,06,30,11,12,15.80
2012,06,30,11,13,15.80
2012,06,30,11,14,15.80
2012,06,30,11,15,15.80
2012,06,30,11,16,15.80
2012,06,30,11,17,15.80
2012,06,30,11,18,15.80
2012,06,30,11,19,15.90
2012,06,30,11,20,15.90
2012,06,30,11,21,16.00
2012,06,30,11,22,16.10
2012,06,30,11,23,16.10
2012,06,30,11,24,16.10
2012,06,30,11,25,16.10
2012,06,30,11,26,16.10
2012,06,30,11,27,16.00
2012,06,30,11,28,16.00
2012,06,30,11,29,16.10
2012,06,30,11,30,16.10
2012,06,30,11,31,16.20
2012,06,30,11,32,16.30
2012,06,30,11,33,16.20
2012,06,30,11,34,16.20
2012,06,30,11,35,16.30
2012,06,30,11,36,16.30
2012,06,30,11,37,16.30
2012,06,30,11,38,16.20
2012,06,30,11,39,16.20
2012,06,30,11,40,16.20
2012,06,30,11,41,16.20
2012,06,30,11,42,16.10
2012,06,30,11,43,16.10
2012,06,30,11,44,16.10
2012,06,30,11,45,16.10
2012,06,30,11,46,16.10
2012,06,30,11,47,16.10
2012,06,30,11,48,16.10
2012,06,30,11,49,16.10
2012,06,30,11,50,16.10
2012,06,30,11,51,16.20
2012,06,30,11,52,16.20
2012,06,30,11,53,16.20
2012,06,30,11,54,16.20
2012,06,30,11,55,16.30
2012,06,30,11,56,16.40
2012,06,30,11,57,16.40
2012,06,30,11,58,16.30
2012,06,30,11,59,16.30
2012,06,30,12,00,16.20
2012,06,30,12,01,16.20
2012,06,30,12,02,16.30
2012,06,30,12,03,16.30
2012,06,30,12,04,16.40
2012,06,30,12,05,16.40
2012,06,30,12,06,16.40
2012,06,30,12,07,16.40
2012,06,30,12,08,16.40
2012,06,30,12,09,16.40
2012,06,30,12,10,16.40
2012,06,30,12,11,16.40
2012,06,30,12,12,16.30
2012,06,30,12,13,16.30
2012,06,30,12,14,16.20
2012,06,30,12,15,16.30
2012,06,30,12,16,16.20
2012,06,30,12,17,16.20
2012,06,30,12,18,16.20
2012,06,30,12,19,16.20
2012,06,30,12,20,16.10
2012,06,30,12,21,16.10
2012,06,30,12,22,16.20
2012,06,30,12,23,16.20
2012,06,30,12,24,16.20
2012,06,30,12,25,16.20
2012,06,30,12,26,16.10
2012,06,30,12,27,16.10
2012,06,30,12,28,16.10
2012,06,30,12,29,16.10
2012,06,30,12,30,16.20
2012,06,30,12,31,16.10
2012,06,30,12,32,16.10
2012,06,30,12,33,16.20
2012,06,30,12,34,16.20
2012,06,30,12,35,16.20
2012,06,30,12,36,16.20
2012,06,30,12,37,16.20
2012,06,30,12,38,16.20
2012,06,30,12,39,16.20
2012,06,30,12,40,16.20
2012,06,30,12,41,16.30
2012,06,30,12,42,16.30
2012,06,30,12,43,16.30
2012,06,30,12,44,16.30
2012,06,30,12,45,16.30
2012,06,30,12,46,16.20
2012,06,30,12,47,16.20
2012,06,30,12,48,16.20
2012,06,30,12,49,16.20
2012,06,30,12,50,16.20
2012,06,30,12,51,16.20
2012,06,30,12,52,16.20
2012,06,30,12,53,16.30
2012,06,30,12,54,16.30
2012,06,30,12,55,16.30
2012,06,30,12,56,16.30
2012,06,30,12,57,16.40
2012,06,30,12,58,16.40
2012,06,30,12,59,16.40
2012,06,30,13,00,16.30
2012,06,30,13,01,16.30
2012,06,30,13,02,16.20
2012,06,30,13,03,16.30
2012,06,30,13,04,16.30
2012,06,30,13,05,16.30
2012,06,30,13,06,16.30
2012,06,30,13,07,16.40
2012,06,30,13,08,16.40
2012,06,30,13,09,16.60
2012,06,30,13,10,16.60
2012,06,30,13,11,16.70
2012,06,30,13,12,16.80
2012,06,30,13,13,16.90
2012,06,30,13,14,16.90
2012,06,30,13,15,16.90
2012,06,30,13,16,16.90
2012,06,30,13,17,16.90
2012,06,30,13,18,16.90
2012,06,30,13,19,17.00
2012,06,30,13,20,17.00
2012,06,30,13,21,17.00
2012,06,30,13,22,17.00
2012,06,30,13,23,17.00
2012,06,30,13,24,17.10
2012,06,30,13,25,17.10
2012,06,30,13,26,17.10
2012,06,30,13,27,17.20
2012,06,30,13,28,17.20
2012,06,30,13,29,17.30
2012,06,30,13,30,17.30
2012,06,30,13,31,17.30
2012,06,30,13,32,17.40
2012,06,30,13,33,17.40
2012,06,30,13,34,17.50
2012,06,30,13,35,17.50
2012,06,30,13,36,17.50
2012,06,30,13,37,17.50
2012,06,30,13,38,17.50
2012,06,30,13,39,17.50
2012,06,30,13,40,17.50
2012,06,30,13,41,17.50
2012,06,30,13,42,17.50
2012,06,30,13,43,17.50
2012,06,30,13,44,17.50
2012,06,30,13,45,17.50
2012,06,30,13,46,17.50
2012,06,30,13,47,17.50
2012,06,30,13,48,17.60
2012,06,30,13,49,17.60
2012,06,30,13,50,17.60
2012,06,30,13,51,17.60
2012,06,30,13,52,17.60
2012,06,30,13,53,17.60
2012,06,30,13,54,17.70
2012,06,30,13,55,17.70
2012,06,30,13,56,17.70
2012,06,30,13,57,17.70
2012,06,30,13,58,17.80
2012,06,30,13,59,17.80
2012,06,30,14,00,17.80
2012,06,30,14,01,17.80
2012,06,30,14,02,17.80
2012,06,30,14,03,17.80
2012,06,30,14,04,17.90
2012,06,30,14,05,17.90
2012,06,30,14,06,18.00
2012,06,30,14,07,18.10
2012,06,30,14,08,18.10
2012,06,30,14,09,18.10
2012,06,30,14,10,18.20
2012,06,30,14,11,18.20
2012,06,30,14,12,18.20
2012,06,30,14,13,18.30
2012,06,30,14,14,18.40
2012,06,30,14,15,18.40
2012,06,30,14,16,18.50
2012,06,30,14,17,18.50
2012,06,30,14,18,18.60
2012,06,30,14,19,18.60
2012,06,30,14,20,18.70
2012,06,30,14,21,18.80
2012,06,30,14,22,18.80
2012,06,30,14,23,18.80
2012,06,30,14,24,18.90
2012,06,30,14,25,18.90
2012,06,30,14,26,18.90
2012,06,30,14,27,18.90
2012,06,30,14,28,18.90
2012,06,30,14,29,18.90
2012,06,30,14,30,18.90
2012,06,30,14,31,18.90
2012,06,30,14,32,18.90
2012,06,30,14,33,19.00
2012,06,30,14,34,19.10
2012,06,30,14,35,19.10
2012,06,30,14,36,19.10
2012,06,30,14,37,19.20
2012,06,30,14,38,19.20
2012,06,30,14,39,19.30
2012,06,30,14,40,19.30
2012,06,30,14,41,19.20
2012,06,30,14,42,19.20
2012,06,30,14,43,19.20
2012,06,30,14,44,19.10
2012,06,30,14,45,19.10
2012,06,30,14,46,19.10
2012,06,30,14,47,18.90
2012,06,30,14,48,18.90
2012,06,30,14,49,18.90
2012,06,30,14,50,18.90
2012,06,30,14,51,18.80
2012,06,30,14,52,18.80
2012,06,30,14,53,18.80
2012,06,30,14,54,18.70
2012,06,30,14,55,18.70
2012,06,30,14,56,18.60
2012,06,30,14,57,18.60
2012,06,30,14,58,18.60
2012,06,30,14,59,18.70
2012,06,30,15,00,18.70
2012,06,30,15,01,18.70
2012,06,30,15,02,18.70
2012,06,30,15,03,18.60
2012,06,30,15,04,18.60
2012,06,30,15,05,18.60
2012,06,30,15,06,18.60
2012,06,30,15,07,18.50
2012,06,30,15,08,18.50
2012,06,30,15,09,18.50
2012,06,30,15,10,18.60
2012,06,30,15,11,18.60
2012,06,30,15,12,18.60
2012,06,30,15,13,18.60
2012,06,30,15,14,18.50
2012,06,30,15,15,18.50
2012,06,30,15,16,18.40
2012,06,30,15,17,18.40
2012,06,30,15,18,18.40
2012,06,30,15,19,18.40
2012,06,30,15,20,18.30
2012,06,30,15,21,18.30
2012,06,30,15,22,18.30
2012,06,30,15,23,18.30
2012,06,30,15,24,18.20
2012,06,30,15,25,18.20
2012,06,30,15,26,18.20
2012,06,30,15,27,18.20
2012,06,30,15,28,18.20
2012,06,30,15,29,18.20
2012,06,30,15,30,18.20
2012,06,30,15,31,18.20
2012,06,30,15,32,18.20
2012,06,30,15,33,18.20
2012,06,30,15,34,18.10
2012,06,30,15,35,18.10
2012,06,30,15,36,18.10
2012,06,30,15,37,18.10
2012,06,30,15,38,18.10
2012,06,30,15,39,18.10
2012,06,30,15,40,18.10
2012,06,30,15,41,18.10
2012,06,30,15,42,18.10
2012,06,30,15,43,18.00
2012,06,30,15,44,17.90
2012,06,30,15,45,17.90
2012,06,30,15,46,17.90
2012,06,30,15,47,17.90
2012,06,30,15,48,17.90
2012,06,30,15,49,17.90
2012,06,30,15,50,17.80
2012,06,30,15,51,17.80
2012,06,30,15,52,17.70
2012,06,30,15,53,17.70
2012,06,30,15,54,17.60
2012,06,30,15,55,17.50
2012,06,30,15,56,17.50
2012,06,30,15,57,17.40
2012,06,30,15,58,17.30
2012,06,30,15,59,17.30
2012,06,30,16,00,17.30
2012,06,30,16,01,17.20
2012,06,30,16,02,17.10
2012,06,30,16,03,17.10
2012,06,30,16,04,17.00
2012,06,30,16,05,17.00
2012,06,30,16,06,16.90
2012,06,30,16,07,16.90
2012,06,30,16,08,16.90
2012,06,30,16,09,16.90
2012,06,30,16,10,16.90
2012,06,30,16,11,16.90
2012,06,30,16,12,16.90
2012,06,30,16,13,16.90
2012,06,30,16,14,17.00
2012,06,30,16,15,17.00
2012,06,30,16,16,17.00
2012,06,30,16,17,17.00
2012,06,30,16,18,17.00
2012,06,30,16,19,17.00
2012,06,30,16,20,17.00
2012,06,30,16,21,17.00
2012,06,30,16,22,17.00
2012,06,30,16,23,17.00
2012,06,30,16,24,17.10
2012,06,30,16,25,17.10
2012,06,30,16,26,17.10
2012,06,30,16,27,17.20
2012,06,30,16,28,17.20
2012,06,30,16,29,17.20
2012,06,30,16,30,17.20
2012,06,30,16,31,17.10
2012,06,30,16,32,17.10
2012,06,30,16,33,17.10
2012,06,30,16,34,17.10
2012,06,30,16,35,17.10
2012,06,30,16,36,17.10
2012,06,30,16,37,17.00
2012,06,30,16,38,17.00
2012,06,30,16,39,17.00
2012,06,30,16,40,17.00
2012,06,30,16,41,17.10
2012,06,30,16,42,17.10
2012,06,30,16,43,17.20
2012,06,30,16,44,17.20
2012,06,30,16,45,17.20
2012,06,30,16,46,17.30
2012,06,30,16,47,17.30
2012,06,30,16,48,17.30
2012,06,30,16,49,17.30
2012,06,30,16,50,17.30
2012,06,30,16,51,17.30
2012,06,30,16,52,17.30
2012,06,30,16,53,17.40
2012,06,30,16,54,17.40
2012,06,30,16,55,17.40
2012,06,30,16,56,17.40
2012,06,30,16,57,17.40
2012,06,30,16,58,17.40
2012,06,30,16,59,17.40
2012,06,30,17,00,17.40
2012,06,30,17,01,17.30
2012,06,30,17,02,17.30
2012,06,30,17,03,17.30
2012,06,30,17,04,17.30
2012,06,30,17,05,17.40
2012,06,30,17,06,17.50
2012,06,30,17,07,17.50
2012,06,30,17,08,17.50
2012,06,30,17,09,17.60
2012,06,30,17,10,17.60
2012,06,30,17,11,17.60
2012,06,30,17,12,17.70
2012,06,30,17,13,17.70
2012,06,30,17,14,17.80
2012,06,30,17,15,17.80
2012,06,30,17,16,17.80
2012,06,30,17,17,17.90
2012,06,30,17,18,17.90
2012,06,30,17,19,17.90